Regional Weather Roundup
Issued by NWS

Home | Current Version | Previous Version | Graphics & Text | Print | Product List | Glossary On
Versions: 1 2 3 4 5 6 7 8 9 10 11 12 13 14 15 16 17 18 19 20 21 22 23 24 25 26 27 28 29 30 31 32 33 34 35 36 37 38 39 40 41 42 43 44 45 46 47 48 49 50
452
ASUS43 KBIS 180310
RWRND

NORTH DAKOTA REGIONAL WEATHER ROUNDUP
NATIONAL WEATHER SERVICE BISMARCK ND
900 PM CST SUN DEC 17 2017

NOTE: "FAIR" INDICATES FEW OR NO CLOUDS BELOW 12,000 FEET WITH NO
SIGNIFICANT WEATHER AND/OR OBSTRUCTIONS TO VISIBILITY.


NDZ001>003-009>011-017-180400-
NORTHWEST NORTH DAKOTA

CITY           SKY/WX    TMP DP  RH WIND       PRES   REMARKS
WILLISTON      PTCLDY    32  19  58 SW7       29.69F
MINOT          CLOUDY    35  23  61 SW7       29.65F
MINOT AFB      MOCLDY    33  22  65 SW8       29.64F
$$

NDZ018>021-031>035-040>046-180400-
SOUTHWEST NORTH DAKOTA

CITY           SKY/WX    TMP DP  RH WIND       PRES   REMARKS
BISMARCK       CLOUDY    36  22  56 SW10      29.76F
DICKINSON      CLOUDY    35  20  54 W14       29.71S
GARRISON         N/A     35  26  69 SW10      29.69F
HETTINGER ARPT CLOUDY    33  21  61 W12       29.79R
$$

NDZ004>008-012>016-024-026-027-054-180400-
NORTHEAST NORTH DAKOTA

CITY           SKY/WX    TMP DP  RH WIND       PRES   REMARKS
GRAND FORKS    MOCLDY    22  21  96 S13       29.78F WCI  10
GRND FRKS AFB  CLOUDY    27  24  86 S12       29.76F WCI  17
DEVILS LAKE    CLOUDY    33  24  69 SW20G26   29.70F
$$

NDZ022-023-025-028>030-036>039-047>053-180400-
SOUTHEAST NORTH DAKOTA

CITY           SKY/WX    TMP DP  RH WIND       PRES   REMARKS
FARGO          FOG       31  31 100 S12       29.85S VSB 1/2
JAMESTOWN      CLOUDY    29  23  78 S9        29.77F
$$





USA.gov is the U.S. government's official web portal to all federal, state and local government web resources and services.